www.pogodaiklimat.ru

Погода и климат >> Архив погоды >> Австралия >> Южная Австралия >> Марри


ПОГОДА в Марри

  • Прогноз погоды в Марри
  • Монитор погоды в Марри

АРХИВ ПОГОДЫ в Марри

Время (UTC), дата Ветер
(напр.,м/с)
 
Видим.   Явления Облачность Т
(С)
Тd
(С)
f
(%)
Тe
(С)
Тes
(С)
Комфортность P
(гПа)
Po
(гПа)
Тmin
(С)
Tmax
(С)
R
(мм)
R24
(мм)
S
(см)
22 13.01 ЮВ 5 н/о н/о +34.3 +3.0 14 +31 +31 жарко 1009.1 1003.4
23 13.01 В 5 н/о н/о +38.2 +3.8 12 +35 +35 очень
жарко
1009.3 1003.6
00 14.01 СВ 7 н/о н/о +41.5 +3.7 10 +38 +38 очень
жарко
1008.8 1003.1
01 14.01 С 8 н/о н/о +44.4 +4.4 9 +41 +41 опасность
перегрева
1008.2 1002.5
02 14.01 С 7 н/о н/о +44.8 +3.0 8 +42 +42 опасность
перегрева
1007.7 1002.0
03 14.01 С 7 н/о н/о +45.9 +3.8 8 +43 +43 опасность
перегрева
1007.0 1001.3
04 14.01 СВ 6 н/о н/о +45.5 +3.5 8 +42 +42 опасность
перегрева
1006.3 1000.6
05 14.01 С 6 н/о н/о +46.9 +2.6 7 +44 +44 опасность
перегрева
1005.9 1000.2
06 14.01 С 5 н/о н/о +46.1 +2.1 7 +43 +43 опасность
перегрева
1005.2 999.5
07 14.01 СЗ 3 н/о н/о +46.9 +2.6 7 +44 +44 опасность
перегрева
1004.7 999.0
08 14.01 С 4 н/о н/о +45.8 +1.9 7 +42 +42 опасность
перегрева
1004.7 999.0
09 14.01 СЗ 3 н/о н/о +45.7 +1.8 7 +42 +42 опасность
перегрева
1005.0 999.3
10 14.01 С 4 н/о н/о +43.3 +1.9 8 +40 +40 очень
жарко
1005.7 1000.0
11 14.01 С 2 н/о н/о +41.3 +2.1 9 +38 +38 очень
жарко
1006.2 1000.5
12 14.01 С 2 н/о н/о +39.3 +2.1 10 +36 +36 очень
жарко
1006.7 1001.0
13 14.01 С 10 н/о н/о +42.0 +2.6 9 +39 +39 очень
жарко
1007.2 1001.5
14 14.01 С 5 н/о н/о +39.5 +2.2 10 +36 +36 очень
жарко
1007.2 1001.5
15 14.01 С 3 н/о н/о +35.9 +2.1 12 +33 +33 жарко 1006.9 1001.2
16 14.01 штиль 0 н/о н/о +33.7 +0.4 12 +30 +30 жарко 1006.6 1000.9
17 14.01 Ю 1 н/о н/о +32.0 +1.2 14 +29 +29 жарко 1006.7 1001.0
18 14.01 З 3 н/о н/о +32.1 +2.2 15 +29 +29 жарко 1007.0 1001.3
19 14.01 СЗ 1 н/о н/о +30.5 +1.9 16 +28 +28 жарко 1007.7 1002.0
20 14.01 В 1 н/о н/о +28.6 +1.2 17 +26 +26 жарко 1008.5 1002.8
21 14.01 ЮВ 3 н/о н/о +31.0 +1.4 15 +28 +28 жарко 1009.4 1003.7
22 14.01 штиль 0 н/о н/о +36.1 +2.2 12 +33 +33 жарко 1010.1 1004.4
23 14.01 С 4 н/о н/о +39.9 +3.9 11 +37 +37 очень
жарко
1009.9 1004.2
00 15.01 С 8 н/о н/о +41.6 +3.8 10 +38 +38 очень
жарко
1009.8 1004.1
01 15.01 С 8 н/о н/о +43.2 +5.0 10 +40 +40 очень
жарко
1009.4 1003.7
02 15.01 С 8 н/о н/о +44.1 +4.2 9 +41 +41 опасность
перегрева
1008.8 1003.1
03 15.01 С 7 н/о н/о +45.2 +3.3 8 +42 +42 опасность
перегрева
1008.3 1002.6
04 15.01 С 6 н/о н/о +45.7 +3.7 8 +43 +43 опасность
перегрева
1007.3 1001.6
05 15.01 СВ 3 н/о н/о +45.5 +3.5 8 +42 +42 опасность
перегрева
1006.5 1000.8
06 15.01 С 3 н/о н/о +46.4 +4.2 8 +43 +43 опасность
перегрева
1005.9 1000.2
07 15.01 ЮВ 2 н/о н/о +46.5 +2.4 7 +43 +43 опасность
перегрева
1005.6 999.9
08 15.01 СЗ 1 н/о н/о +46.1 +2.1 7 +43 +43 опасность
перегрева
1005.3 999.6
09 15.01 В 2 н/о н/о +45.6 +1.7 7 +42 +42 опасность
перегрева
1005.5 999.8
10 15.01 Ю 2 н/о н/о +43.6 +2.1 8 +40 +40 очень
жарко
1005.9 1000.2
11 15.01 С 3 н/о н/о +41.1 +2.0 9 +38 +38 очень
жарко
1006.2 1000.5
12 15.01 С 3 н/о н/о +39.0 +1.9 10 +35 +35 очень
жарко
1006.7 1001.0
13 15.01 С 4 н/о н/о +37.0 +1.7 11 +34 +34 очень
жарко
1006.7 1001.0
14 15.01 С 4 н/о н/о +36.0 +2.1 12 +33 +33 жарко 1006.6 1000.9
15 15.01 С 3 н/о н/о +34.2 +1.9 13 +31 +31 жарко 1006.4 1000.7
16 15.01 СВ 3 н/о н/о +33.1 +2.1 14 +30 +30 жарко 1005.9 1000.2
17 15.01 С 4 н/о н/о +32.7 +2.7 15 +30 +30 жарко 1005.7 1000.0
18 15.01 СВ 4 н/о н/о +32.4 +3.4 16 +30 +30 жарко 1005.7 1000.0
19 15.01 СЗ 1 н/о н/о +30.7 +2.9 17 +28 +28 жарко 1006.3 1000.6
20 15.01 С 2 н/о н/о +30.9 +3.8 18 +29 +29 жарко 1007.0 1001.3
21 15.01 В 2 н/о н/о +31.5 +2.7 16 +29 +29 жарко 1008.2 1002.5
22 15.01 С 7 н/о н/о +37.5 +5.5 14 +35 +35 очень
жарко
1008.9 1003.2
23 15.01 С 9 н/о н/о +39.9 +6.3 13 +37 +37 очень
жарко
1009.0 1003.3
00 16.01 С 11 н/о н/о +42.3 +4.3 10 +39 +39 очень
жарко
1008.7 1003.0
01 16.01 С 10 н/о н/о +44.1 +4.2 9 +41 +41 опасность
перегрева
1008.4 1002.7
02 16.01 С 9 н/о н/о +44.2 +4.2 9 +41 +41 опасность
перегрева
1007.9 1002.2
03 16.01 С 7 н/о н/о +45.1 +3.2 8 +42 +42 опасность
перегрева
1006.9 1001.2
04 16.01 С 7 н/о н/о +45.3 +3.4 8 +42 +42 опасность
перегрева
1006.1 1000.4
05 16.01 С 5 н/о н/о +46.1 +2.1 7 +43 +43 опасность
перегрева
1005.2 999.5
06 16.01 С 2 н/о н/о +45.9 +3.8 8 +43 +43 опасность
перегрева
1004.6 998.9
07 16.01 С 5 н/о н/о +46.0 +3.9 8 +43 +43 опасность
перегрева
1004.1 998.4
08 16.01 С 6 н/о н/о +46.0 +3.9 8 +43 +43 опасность
перегрева
1004.0 998.3
09 16.01 С 7 н/о н/о +44.7 +2.9 8 +41 +41 опасность
перегрева
1004.2 998.5
10 16.01 С 6 н/о н/о +42.8 +3.2 9 +40 +40 очень
жарко
1004.7 999.0
11 16.01 СЗ 4 н/о н/о +40.0 +2.6 10 +37 +37 очень
жарко
1005.4 999.7
12 16.01 С 4 н/о н/о +38.1 +2.5 11 +35 +35 очень
жарко
1005.9 1000.2
13 16.01 С 3 н/о н/о +36.0 +2.1 12 +33 +33 жарко 1006.1 1000.4
14 16.01 С 4 н/о н/о +35.1 +3.6 14 +32 +32 жарко 1006.0 1000.3
15 16.01 С 3 н/о н/о +33.9 +3.7 15 +31 +31 жарко 1005.9 1000.2
16 16.01 С 4 н/о н/о +33.0 +3.9 16 +30 +30 жарко 1005.5 999.8
17 16.01 С 3 н/о н/о +31.7 +3.7 17 +29 +29 жарко 1005.1 999.4
18 16.01 З 3 н/о н/о +30.1 +3.2 18 +28 +28 жарко 1005.0 999.3
19 16.01 СЗ 1 н/о н/о +30.5 +3.5 18 +28 +28 жарко 1005.2 999.5
20 16.01 штиль 0 н/о н/о +29.8 +3.7 19 +28 +28 жарко 1005.6 999.9
21 16.01 штиль 0 н/о н/о +31.1 +2.3 16 +29 +29 жарко 1006.2 1000.5
22 16.01 штиль 0 н/о н/о +35.6 +4.0 14 +33 +33 жарко 1006.6 1000.9
23 16.01 СЗ 8 н/о н/о +40.6 +3.1 10 +37 +37 очень
жарко
1006.7 1001.0
00 17.01 З 8 н/о н/о +42.8 +3.2 9 +40 +40 очень
жарко
1006.4 1000.7
01 17.01 СЗ 7 н/о н/о +44.5 +4.5 9 +41 +41 опасность
перегрева
1006.1 1000.4
02 17.01 СЗ 7 н/о н/о +46.0 +3.9 8 +43 +43 опасность
перегрева
1005.8 1000.1
03 17.01 З 5 н/о н/о +45.4 +3.5 8 +42 +42 опасность
перегрева
1005.2 999.5
04 17.01 СЗ 6 н/о н/о +46.2 +4.0 8 +43 +43 опасность
перегрева
1004.4 998.7
05 17.01 С 5 н/о н/о +46.1 +4.0 8 +43 +43 опасность
перегрева
1003.5 997.8
06 17.01 СЗ 4 н/о н/о +45.9 +3.8 8 +43 +43 опасность
перегрева
1002.8 997.1
07 17.01 З 6 н/о н/о +45.1 +3.2 8 +42 +42 опасность
перегрева
1002.4 996.7
08 17.01 С 6 н/о н/о +44.8 +4.7 9 +42 +42 опасность
перегрева
1002.1 996.4
09 17.01 СЗ 6 н/о н/о +44.8 +3.0 8 +42 +42 опасность
перегрева
1002.3 996.6
10 17.01 СЗ 5 н/о н/о +42.9 +3.3 9 +40 +40 очень
жарко
1002.8 997.1
11 17.01 СЗ 4 н/о н/о +39.6 +2.3 10 +36 +36 очень
жарко
1003.2 997.5
12 17.01 СЗ 4 н/о н/о +37.5 +0.7 10 +34 +34 очень
жарко
1003.4 997.7
13 17.01 З 3 н/о н/о +36.4 +1.2 11 +33 +33 жарко 1003.4 997.7
14 17.01 С 3 н/о н/о +35.7 +1.9 12 +32 +32 жарко 1003.1 997.4
15 17.01 СВ 6 н/о н/о +35.7 +1.9 12 +32 +32 жарко 1002.6 996.9
16 17.01 ЮВ 5 н/о н/о +35.0 +10.1 22 +34 +34 очень
жарко
1002.8 997.1
17 17.01 Ю 2 н/о н/о +33.5 +10.2 24 +33 +33 жарко 1002.4 996.7
18 17.01 ЮВ 3 н/о н/о +31.3 +8.9 25 +30 +30 жарко 1002.5 996.8
19 17.01 ЮВ 3 н/о н/о +30.2 +8.6 26 +30 +30 жарко 1002.7 997.0
20 17.01 СВ 2 н/о н/о +29.2 +7.2 25 +28 +28 жарко 1003.3 997.6
21 17.01 СЗ 2 н/о н/о +32.7 +5.3 18 +30 +30 жарко 1004.4 998.7
22 17.01 С 3 н/о н/о +38.4 +6.2 14 +36 +36 очень
жарко
1004.9 999.2
23 17.01 С 3 н/о н/о +41.1 +4.8 11 +38 +38 очень
жарко
1005.4 999.7
00 18.01 СЗ 5 н/о н/о +42.3 +4.3 10 +39 +39 очень
жарко
1005.6 999.9
01 18.01 Ю 5 н/о н/о +41.8 +7.8 13 +40 +40 очень
жарко
1005.8 1000.1
02 18.01 Ю 11 н/о н/о +41.2 +9.4 15 +39 +39 очень
жарко
1006.1 1000.4
03 18.01 Ю 14 н/о н/о +40.8 +10.9 17 +40 +40 очень
жарко
1005.9 1000.2
04 18.01 Ю 14 н/о н/о +42.1 +10.1 15 +41 +41 опасность
перегрева
1005.8 1000.1
05 18.01 Ю 15 н/о н/о +41.0 +11.1 17 +40 +40 очень
жарко
1005.5 999.8
06 18.01 Ю 15 н/о н/о +40.4 +12.3 19 +40 +40 очень
жарко
1005.6 999.9
07 18.01 Ю 14 н/о н/о +38.5 +13.7 23 +39 +39 душно 1005.9 1000.2
08 18.01 Ю 17 н/о н/о +36.9 +13.0 24 +37 +37 очень
жарко
1006.2 1000.5
09 18.01 Ю 16 н/о н/о +35.4 +12.4 25 +35 +35 очень
жарко
1007.7 1002.0
10 18.01 Ю 14 н/о н/о +33.8 +13.3 29 +35 +35 очень
жарко
1009.1 1003.4
11 18.01 Ю 12 н/о н/о +33.1 +13.2 30 +34 +34 очень
жарко
1010.5 1004.8
12 18.01 Ю 10 н/о н/о +33.2 +13.3 30 +34 +34 очень
жарко
1011.5 1005.8
13 18.01 Ю 9 н/о н/о +32.9 +13.0 30 +34 +34 очень
жарко
1011.9 1006.2
14 18.01 Ю 9 н/о н/о +32.5 +12.7 30 +33 +33 жарко 1011.7 1006.0
15 18.01 Ю 9 н/о н/о +30.0 +15.7 42 +33 +33 душно 1011.7 1006.0
16 18.01 Ю 8 н/о н/о +28.3 +16.6 49 +32 +32 душно 1011.6 1005.9
17 18.01 Ю 8 н/о н/о +27.2 +17.1 54 +31 +31 душно 1011.5 1005.8
18 18.01 Ю 6 н/о н/о +27.3 +16.0 50 +31 +31 душно 1011.4 1005.7
19 18.01 Ю 8 н/о н/о +27.2 +13.2 42 +29 +29 жарко 1011.5 1005.8
20 18.01 Ю 7 н/о н/о +27.0 +13.0 42 +29 +29 жарко 1012.7 1007.0
21 18.01 Ю 8 н/о н/о +28.0 +12.4 38 +29 +29 жарко 1013.4 1007.7
22 18.01 Ю 9 н/о н/о +29.2 +11.3 33 +30 +30 жарко 1014.1 1008.4
23 18.01 ЮВ 9 н/о н/о +31.6 +9.8 26 +31 +31 жарко 1014.3 1008.6
00 19.01 ЮВ 8 н/о н/о +34.1 +10.0 23 +33 +33 жарко 1014.3 1008.6
01 19.01 ЮВ 7 н/о н/о +36.8 +9.4 19 +35 +35 очень
жарко
1014.1 1008.4
02 19.01 ЮВ 7 н/о н/о +39.1 +10.4 18 +38 +38 очень
жарко
1013.6 1007.9
03 19.01 ЮВ 6 н/о н/о +40.3 +11.4 18 +39 +39 очень
жарко
1013.0 1007.3
04 19.01 В 6 н/о н/о +41.4 +10.5 16 +40 +40 очень
жарко
1012.3 1006.6
05 19.01 ЮВ 5 н/о н/о +41.3 +10.4 16 +40 +40 очень
жарко
1011.5 1005.8
06 19.01 ЮВ 7 н/о н/о +42.3 +9.2 14 +40 +40 очень
жарко
1011.0 1005.3
07 19.01 Ю 6 н/о н/о +41.9 +9.9 15 +40 +40 очень
жарко
1010.5 1004.8
08 19.01 Ю 4 н/о н/о +41.5 +9.6 15 +40 +40 очень
жарко
1010.2 1004.5
09 19.01 Ю 8 н/о н/о +41.2 +9.4 15 +39 +39 очень
жарко
1010.5 1004.8
10 19.01 Ю 10 н/о н/о +39.2 +8.8 16 +37 +37 очень
жарко
1011.2 1005.5
11 19.01 ЮВ 9 н/о н/о +37.6 +9.2 18 +36 +36 очень
жарко
1012.4 1006.7
12 19.01 ЮВ 7 н/о н/о +36.2 +9.7 20 +35 +35 очень
жарко
1013.3 1007.6
13 19.01 ЮВ 8 н/о н/о +35.2 +8.9 20 +34 +34 очень
жарко
1013.9 1008.2
14 19.01 ЮВ 7 н/о н/о +34.2 +8.0 20 +33 +33 жарко 1013.8 1008.1
15 19.01 ЮВ 8 н/о н/о +33.4 +7.4 20 +32 +32 жарко 1013.6 1007.9
16 19.01 ЮВ 9 н/о н/о +32.6 +4.4 17 +30 +30 жарко 1013.3 1007.6
17 19.01 ЮВ 8 н/о н/о +32.0 +3.9 17 +30 +30 жарко 1013.3 1007.6
18 19.01 ЮВ 11 н/о н/о +31.7 +4.5 18 +29 +29 жарко 1012.9 1007.2
19 19.01 ЮВ 7 н/о н/о +30.7 +4.4 19 +29 +29 жарко 1013.4 1007.7
20 19.01 ЮВ 5 н/о н/о +30.0 +3.9 19 +28 +28 жарко 1014.1 1008.4
21 19.01 ЮВ 6 н/о н/о +29.9 +3.8 19 +28 +28 жарко 1014.4 1008.7
22 19.01 ЮВ 6 н/о н/о +31.0 +3.1 17 +29 +29 жарко 1015.2 1009.5
23 19.01 ЮВ 6 н/о н/о +32.5 +2.5 15 +30 +30 жарко 1015.6 1009.9
00 20.01 ЮВ 6 н/о н/о +34.9 +2.4 13 +32 +32 жарко 1015.2 1009.5
01 20.01 В 6 н/о н/о +36.6 +3.7 13 +34 +34 очень
жарко
1014.7 1009.0
02 20.01 ЮВ 6 н/о н/о +38.3 +2.7 11 +35 +35 очень
жарко
1014.2 1008.5
03 20.01 ЮВ 5 н/о н/о +39.8 +3.8 11 +37 +37 очень
жарко
1013.5 1007.8
04 20.01 Ю 5 н/о н/о +41.3 +4.9 11 +38 +38 очень
жарко
1012.5 1006.8
05 20.01 ЮВ 3 н/о н/о +41.6 +3.8 10 +38 +38 очень
жарко
1011.6 1005.9
06 20.01 Ю 3 н/о н/о +40.9 +4.6 11 +38 +38 очень
жарко
1011.3 1005.6
07 20.01 В 2 н/о н/о +41.0 +6.0 12 +38 +38 очень
жарко
1010.7 1005.0
08 20.01 Ю 5 н/о н/о +41.2 +4.9 11 +38 +38 очень
жарко
1010.6 1004.9
09 20.01 Ю 8 н/о н/о +40.5 +3.0 10 +37 +37 очень
жарко
1011.0 1005.3
10 20.01 Ю 10 н/о н/о +37.4 +2.0 11 +34 +34 очень
жарко
1011.8 1006.1
11 20.01 Ю 9 н/о н/о +35.9 +3.2 13 +33 +33 жарко 1012.2 1006.5
12 20.01 Ю 8 н/о н/о +34.8 +2.3 13 +32 +32 жарко 1012.6 1006.9
13 20.01 Ю 8 н/о н/о +33.8 +2.6 14 +31 +31 жарко 1012.9 1007.2
14 20.01 Ю 6 н/о н/о +32.6 +2.6 15 +30 +30 жарко 1013.0 1007.3
15 20.01 ЮВ 6 н/о н/о +31.4 +3.4 17 +29 +29 жарко 1012.3 1006.6
16 20.01 ЮВ 5 н/о н/о +30.3 +3.4 18 +28 +28 жарко 1011.9 1006.2
17 20.01 ЮВ 5 н/о н/о +29.4 +2.6 18 +27 +27 жарко 1011.6 1005.9
18 20.01 Ю 5 н/о н/о +28.7 +2.1 18 +27 +27 жарко 1011.4 1005.7
19 20.01 ЮВ 5 н/о н/о +27.9 +2.2 19 +26 +26 жарко 1011.6 1005.9
20 20.01 Ю 4 н/о н/о +26.7 +2.6 21 +25 +25 комфорт 1011.8 1006.1
21 20.01 ЮВ 4 н/о н/о +28.7 +4.2 21 +27 +27 жарко 1012.3 1006.6
22 20.01 ЮВ 5 н/о н/о +31.1 +5.5 20 +29 +29 жарко 1012.4 1006.7

 

Местоположение метеостанции Марри (Южная Австралия, Австралия): широта -29.66 долгота 138.06 высота над уровнем моря 51 м.

В архиве по умолчанию представлена погода в Марри за последнюю неделю. Архивные данные за месяц целиком и за предыдущие месяцы, начиная с января 2011 года, Вы можете получить, выбрав интересующий диапазон дат из раскрывающегося списка и нажав кнопку "Ввод!".


*Определитесь, кто Вы:
робот инопланетянин человек

Внимание! Время в таблицах - всемирное. Для получения местного времени необходимо прибавить поправку, которая равна 9.5 ч.

Смотрите также архив погоды в соседних городах и на ближайших метеорологических станциях:

Погода в Ли-Крике (Южная Австралия, Австралия) (110 км)
Погода в Олимпик Дэм (Южная Австралия, Австралия) (146 км)
Погода на Аэродроме Вумера (Южная Австралия, Австралия) (205 км)
Погода в Мумбе (Южная Австралия, Австралия) (271 км)
Погода в Порт Огаста (Южная Австралия, Австралия) (320 км)
Погода в Кубер-Педи (Южная Австралия, Австралия) (332 км)
Погода в Однадатте (Южная Австралия, Австралия) (346 км)
Погода в Юнте (Южная Австралия, Австралия) (354 км)
Погода в Таркуле (Южная Австралия, Австралия) (355 км)
Погода в Уиолле (Южная Австралия, Австралия) (383 км)

Пояснения к столбцам:

Ветер - указаны скорость ветра в м/с - средняя за 10 мин, порывы в срок и между сроками (в фигурных скобках) и направление, откуда дует ветер: С - северный, СВ - северо-восточный, В - восточный, ЮВ - юго-восточный, Ю - южный, ЮЗ - юго-западный, З - западный, СЗ - северо-западный.
Видимость - горизонтальная дальность видимости в метрах или километрах. При видимости от 1 до 10 км при отсутствии осадков обычно наблюдается дымка, при ухудшении видимости до 1 км и менее - туман. В сухую погоду видимость может ухудшаться дымом, пылью или мглою.
Явления - указаны атмосферные явления, наблюдавшиеся в срок или в последний час перед сроком; фигурными скобками обозначены явления, наблюдавшиеся между сроками (за 1-3 часа до срока); квадратными скобками обозначены град или гололедные отложения с указанием их диаметра в мм.
Облачность - указаны через наклонную черту общая и нижняя облачность в баллах и высота нижней границы облаков в метрах; квадратными скобками обозначены формы облаков: Ci - перистые, Cs - перисто-слоистые, Cc - перисто-кучевые, Ac - высококучевые, As - высокослоистые, Sc - слоисто-кучевые, Ns - слоисто-дождевые, Cu - кучевые, Cb - кучево-дождевые. Подробнее классификацию облаков см. в Атласе облаков (PDF).
T - Температура воздуха - температура, измеренная на высоте 2 м над землей.
Td - Температура точки росы - температура, при понижении до которой содержащийся в воздухе водяной пар достигнет насыщения.
f - Относительная влажность воздуха - влажноcть воздуха, измеренная на высоте 2 м над землей.
Te - Эффективная температура - температура, которую ощущает одетый по сезону человек в тени. Характеристика душности погоды. При расчете учитывается влияние влажности воздуха и скорости ветра на теплоощущения человека.
Tes - Эффективная температура на солнце - температура, которую ощущает человек, с поправкой на солнечный нагрев. Характеристика знойности погоды. Зависит от высоты солнца над горизонтом, облачности и скорости ветра. Ночью, в пасмурную погоду, а также при ветре 12 м/с и более поправка равна нулю.
P - Атмосферное давление - приведенное к уровню моря атмосферное давление.
Po - Атмосферное давление - измеренное на уровне метеостанции атмосферное давление.
Tmin - Минимальная температура - минимум температуры воздуха на высоте 2 м над землей.
Tmax - Максимальная температура - максимум температуры воздуха на высоте 2 м над землей.
R - Количество осадков - Количество выпавших осадков за период времени, мм. При наведении курсора мыши на число - период времени, за который выпало указанное количество осадков.
R24 - Количество осадков - Количество выпавших осадков за 24 часа, мм.
S - Снежный покров - Высота снежного покрова, см. При наведении курсора мыши на число - состояние снежного покрова и степень покрытия местности в баллах.